DELTA 1 DEB

Satellite information

Favourite Embed

Satellite Type and Status

DEBRISIN ORBIT

Key statistics

Satellite DELTA 1 DEB at a glance.

Uptime

19285

Days in orbit

Revolutions

≈ 14.1

Per day

Orbit

SSO

Sun Synchronous Orbit

Inclination

97.7

Latest

Satellite identification and parameters

Extended collection of information and parameters for DELTA 1 DEB.

Object identification

Identified? True

Debris? True

Object name: DELTA 1 DEB

International designator: 1972-058BS

Object number (NORAD): 7907

Object ID (CCSDS): 7907

Country: UNITED STATES OF AMERICA (US)

Current information (Y/N): Y

RCS size: MEDIUM

Orbital parameters

Period: 102.295 minutes

Inclination: 97.6787 deg

SMA: 7245.416 km

Apoapsis: 1062.963 km

Periapsis: 671.598 km

RAAN: 333.1461 deg

Eccentricy: 0.0270078

Argument of periapsis: 320.4815 deg

Mean anomaly: 37.6935 deg

Mean motion: 14.07692523 rev/day

Mean motion (dot): 0.00000555 rev/day2

B* drag term: 0.0002514 1/REarth

Two-line elements (TLE)

Creation date: May 11, 2025, 2:40 a.m.

Reference frame: TEME

Reference center: EARTH

Epoch: May 10, 2025, 1:45 p.m. UTC

TLE line 0: 0 DELTA 1 DEB

TLE line 1: 1 07907U 72058BS 25130.57320551 .00000555 00000-0 25140-3 0 9994

TLE line 2: 2 07907 97.6787 333.1461 0270078 320.4815 37.6935 14.07692523522873

Live tracking on map

Real-time ground track for satellite DELTA 1 DEB.

In-orbit conjunctions

A list of the most updated potential collisions computed for object DELTA 1 DEB.

Target Orbit TCA Probability of collision Miss distance Type
FENGYUN 1C DEB SSO 2025-05-07 22:31:49 0.0002035749 103.0 (m) DEBRIS
SL-8 R/B LEO 2024-10-30 21:49:58 0.0009535373 71.0 (m) ROCKET BODY
CZ-6A DEB LEO 2024-10-14 20:33:32 0.0001291326 871.0 (m) DEBRIS

Associated space launch

Earth observation satellite

DELTA 1 DEB was lifted into orbit during the mission ‘Delta 0900 | Landsat 1’, on board a Delta 0900 space rocket.

The launch took place on July 23, 1972, 6:06 p.m. from Space Launch Complex 2W.

For more information about the launch, click the button.

Launch to space Delta 0900 | Landsat 1
Delta 0900 | Landsat 1

Agency: N/A

Status: Launch Successful

Launch date: July 23, 1972, 6:06 p.m. UTC

Rocket: Delta 0900

Launch pad: Space Launch Complex 2W

Location: Vandenberg SFB, CA, USA

...

Latest news about this satellite

There are no fresh news available about this satellite. Check back as we update our databases every day.


Newsletter sign-up

Weekly statistics, charts and insights to help you stay on top of the space industry.